Miscellaneous Local Product
Issued by NWS North Platte, NE

Home | Current Version | Previous Version | Graphics & Text | Print | Product List | Glossary On
Versions: 1 2 3 4 5 6 7 8 9 10 11 12 13 14 15 16 17 18 19 20 21 22 23 24 25 26 27 28 29 30 31 32 33 34 35 36 37 38 39 40 41 42 43 44 45 46 47 48 49 50
000
AXUS43 KLBF 161810
MISLBF


WESTERN AND NORTH CENTRAL NEBRASKA HOURLY WEATHER ROUNDUP
NATIONAL WEATHER SERVICE NORTH PLATTE NE
1200 PM CST THU NOV 16 2017

NOTE: "FAIR" INDICATES FEW OR NO CLOUDS BELOW 12,000 FEET WITH NO
SIGNIFICANT WEATHER AND/OR OBSTRUCTIONS TO VISIBILITY.

NOTE: STATIONS NOT REPORTING VARIABLES SUCH AS SKY/WEATHER OR
PRESSURE ARE PROVIDED BY RAWS AND APRS NETWORKS AND ARE NOT UNDER
NATIONAL WEATHER SERVICE QUALITY CONTROL.

...OBSERVATIONS IN AND NEAR THE EASTERN PANHANDLE OF NEBRASKA...

CITY           SKY/WX    TMP DP  RH WIND       PRES   REMARKS
PINE RIDGE     CLOUDY    64  28  25 S16       29.66F
GORDON         FAIR      57  26  31 SW17G24   29.70F
CHADRON        SUNNY     72  23  16 SW20G31   29.65F
ALLIANCE       SUNNY     64  26  23 SW13      29.74F
SIDNEY         SUNNY     65  23  20 SW15      29.80F
CRESCENT LAKE    N/A     50  28  42 S9          N/A
$$

...OBSERVATIONS IN NORTHERN NEBRASKA AND FAR SOUTHERN SOUTH DAKOTA...

CITY           SKY/WX    TMP DP  RH WIND       PRES   REMARKS
WINNER         FAIR      50  30  46 S31G39    29.72F
VALENTINE      CLOUDY    53  28  38 S23G35    29.74F
THEDFORD       SUNNY     52  31  44 S16       29.83F
AINSWORTH      CLOUDY    51  32  47 S26G37    29.77F
O`NEILL        CLOUDY    48  31  52 S25G32    29.90F
ORD            CLOUDY    50  31  48 S22G32    29.91F
BROKEN BOW     CLOUDY    52  31  44 S26G44    29.88F
VALENTINE NWR    N/A     49  28  43 S20G31      N/A
HALSEY           N/A     51  29  43 S13G30      N/A
BUTTE            N/A     44  29  57 S26G37      N/A
CHAMBERS         N/A     50  32  50 S13         N/A
EWING            N/A     45  31  57 S12G22      N/A
$$

...OBSERVATIONS IN SOUTHWEST NEBRASKA AND FAR NORTHEAST COLORADO...

CITY           SKY/WX    TMP DP  RH WIND       PRES   REMARKS
HOLYOKE        FAIR      57  28  33 SE3       29.83F
IMPERIAL       SUNNY     52  29  41 S12       29.85F
OGALLALA       SUNNY     51  30  44 S9        29.84F
NORTH PLATTE   SUNNY     52  31  44 S15       29.88F
MCCOOK         SUNNY     55  33  43 S22G28    29.88F
LEXINGTON      CLOUDY    53  32  44 S31G37    29.89F
STAPLETON        N/A     49  32  52 S5G12       N/A
GOTHENBURG       N/A     51  29  43 S13         N/A
CALLAWAY         N/A     51  33  51 S23         N/A
$$

...OBSERVATIONS IN CENTRAL LINCOLN COUNTY AREA...

CITY           SKY/WX    TMP DP  RH WIND       PRES   REMARKS
N.P. AIRPORT   SUNNY     52  31  44 S15       29.88F
N.P. DOWNTOWN    N/A     50  33  51 S3G12       N/A
N.P. SOUTHEAST   N/A     49  31  50 S10G18      N/A
N.P. HILLCREST   N/A     51  33  51 S12G20      N/A
$$

...SOME OBSERVATIONS FROM AROUND THE REGION...

CITY           SKY/WX    TMP DP  RH WIND       PRES   REMARKS
DENVER         CLOUDY    68  17  14 SW12      29.85F
LIMON          SUNNY     70  17  13 W8        29.87F
ASPEN          SUNNY     57  16  20 N9        30.07F
LARAMIE        SUNNY     58  20  22 SW30      29.86F
CASPER         SUNNY     60  18  19 SW29G37   29.72F
CHEYENNE       CLOUDY    63  21  20 S17G23    29.85F
SCOTTSBLUFF    CLOUDY    52  29  41 SE8       29.75F
GRAND ISLAND   CLOUDY    49  31  49 S23G31    30.00F
OMAHA          MOSUNNY   40  24  53 SE14      30.15F WCI  32
SIOUX FALLS    CLOUDY    29  21  72 SE14      30.06F WCI  18
PIERRE         CLOUDY    41  28  60 SE21G31   29.69F
RAPID CITY     CLOUDY    55  27  34 SE7       29.58F
BISMARCK       CLOUDY    33  21  61 SE25G31   29.74F WCI  20
KANSAS CITY    PTSUNNY   47  27  45 SE6       30.17F
HILL CITY      LGT RAIN  57  33  40 S21G30    29.95F
WICHITA        MOSUNNY   57  35  43 SE15      30.09F
DODGE CITY     SUNNY     57  32  38 S25G35    29.99F
OKLAHOMA CITY  CLOUDY    58  44  60 S12       30.10F
DALLAS         PTSUNNY   70  62  76 S6        30.08F HAZE
AMARILLO       SUNNY     61  43  51 S21       30.03F
$$




USA.gov is the U.S. government's official web portal to all federal, state and local government web resources and services.